Time,TemperatureF,DewpointF,PressureIn,WindDirection,WindDirectionDegrees,WindSpeedMPH,WindSpeedGustMPH,Humidity,HourlyPrecipIn,Conditions,Clouds,dailyrainin,SoftwareType,DateUTC
2013-02-18 00:01:00,39.0,37.0,30.09,SSE,161,0.0,1.0,91,-99.99,,,-99.99,,2013-02-18 08:01:00,
2013-02-18 00:11:00,39.0,37.0,30.09,SSE,161,0.0,1.0,91,-99.99,,,-99.99,,2013-02-18 08:11:00,
2013-02-18 00:21:00,39.0,37.0,30.09,SSE,161,0.0,1.0,92,-99.99,,,-99.99,,2013-02-18 08:21:00,
2013-02-18 00:32:00,39.0,37.0,30.09,SSE,159,0.0,2.0,92,-99.99,,,-99.99,,2013-02-18 08:32:00,
2013-02-18 00:41:00,39.0,37.0,30.09,SSE,159,0.0,2.0,92,-99.99,,,-99.99,,2013-02-18 08:41:00,
2013-02-18 00:52:00,40.0,38.0,30.08,East,95,1.0,3.0,92,-99.99,,,-99.99,,2013-02-18 08:52:00,
2013-02-18 01:02:00,40.0,38.0,30.07,East,84,0.0,2.0,91,-99.99,,,-99.99,,2013-02-18 09:02:00,
2013-02-18 01:11:00,40.0,38.0,30.07,East,84,0.0,2.0,91,-99.99,,,-99.99,,2013-02-18 09:11:00,
2013-02-18 01:22:00,40.0,38.0,30.07,East,85,0.0,2.0,91,-99.99,,,-99.99,,2013-02-18 09:22:00,
2013-02-18 01:31:00,40.0,37.0,30.07,East,88,0.0,2.0,90,-99.99,,,-99.99,,2013-02-18 09:31:00,
2013-02-18 01:41:00,40.0,37.0,30.07,East,88,0.0,2.0,90,-99.99,,,-99.99,,2013-02-18 09:41:00,
2013-02-18 01:52:00,40.0,37.0,30.06,East,84,0.0,3.0,90,-99.99,,,-99.99,,2013-02-18 09:52:00,
2013-02-18 02:01:00,40.0,37.0,30.05,East,86,0.0,3.0,89,-99.99,,,-99.99,,2013-02-18 10:01:00,
2013-02-18 02:11:00,40.0,37.0,30.05,East,86,0.0,3.0,89,-99.99,,,-99.99,,2013-02-18 10:11:00,
2013-02-18 02:21:00,40.0,37.0,30.05,East,86,0.0,0.0,89,-99.99,,,-99.99,,2013-02-18 10:21:00,
2013-02-18 02:31:00,40.0,37.0,30.05,East,86,0.0,1.0,89,-99.99,,,-99.99,,2013-02-18 10:31:00,
2013-02-18 02:41:00,40.0,37.0,30.05,East,86,0.0,1.0,89,-99.99,,,-99.99,,2013-02-18 10:41:00,
2013-02-18 02:51:00,40.0,37.0,30.04,East,86,0.0,0.0,89,-99.99,,,-99.99,,2013-02-18 10:51:00,
2013-02-18 03:01:00,39.0,36.0,30.04,East,86,0.0,0.0,89,-99.99,,,-99.99,,2013-02-18 11:01:00,
2013-02-18 03:11:00,39.0,36.0,30.04,East,86,0.0,0.0,89,-99.99,,,-99.99,,2013-02-18 11:11:00,
2013-02-18 03:21:00,39.0,36.0,30.03,East,86,0.0,0.0,90,-99.99,,,-99.99,,2013-02-18 11:21:00,
2013-02-18 03:32:00,39.0,37.0,30.02,East,86,0.0,0.0,91,-99.99,,,-99.99,,2013-02-18 11:32:00,
2013-02-18 03:43:00,39.0,37.0,30.02,East,86,0.0,0.0,91,-99.99,,,-99.99,,2013-02-18 11:43:00,
2013-02-18 03:52:00,39.0,37.0,30.02,East,86,0.0,0.0,91,-99.99,,,-99.99,,2013-02-18 11:52:00,
2013-02-18 04:01:00,39.0,37.0,30.02,East,86,0.0,0.0,91,-99.99,,,-99.99,,2013-02-18 12:01:00,
2013-02-18 04:11:00,39.0,37.0,30.02,East,86,0.0,0.0,91,-99.99,,,-99.99,,2013-02-18 12:11:00,
2013-02-18 04:21:00,39.0,37.0,30.01,East,86,0.0,1.0,92,-99.99,,,-99.99,,2013-02-18 12:21:00,
2013-02-18 04:32:00,39.0,37.0,30.01,East,86,0.0,1.0,92,-99.99,,,-99.99,,2013-02-18 12:32:00,
2013-02-18 04:42:00,39.0,37.0,30.01,East,86,0.0,1.0,92,-99.99,,,-99.99,,2013-02-18 12:42:00,
2013-02-18 04:52:00,39.0,37.0,30.01,East,86,0.0,1.0,92,-99.99,,,-99.99,,2013-02-18 12:52:00,
2013-02-18 05:01:00,39.0,37.0,29.99,East,86,0.0,0.0,92,-99.99,,,-99.99,,2013-02-18 13:01:00,
2013-02-18 05:12:00,39.0,37.0,29.99,East,86,0.0,0.0,92,-99.99,,,-99.99,,2013-02-18 13:12:00,
2013-02-18 05:22:00,38.0,36.0,29.99,East,86,0.0,0.0,92,-99.99,,,-99.99,,2013-02-18 13:22:00,
2013-02-18 05:32:00,38.0,36.0,29.98,East,86,0.0,0.0,92,-99.99,,,-99.99,,2013-02-18 13:32:00,
2013-02-18 05:41:00,38.0,36.0,29.98,East,86,0.0,0.0,92,-99.99,,,-99.99,,2013-02-18 13:41:00,
2013-02-18 05:52:00,38.0,36.0,29.98,East,86,0.0,0.0,92,-99.99,,,-99.99,,2013-02-18 13:52:00,
2013-02-18 06:02:00,38.0,36.0,29.98,East,86,0.0,0.0,93,-99.99,,,-99.99,,2013-02-18 14:02:00,
2013-02-18 06:11:00,38.0,36.0,29.98,East,86,0.0,0.0,93,-99.99,,,-99.99,,2013-02-18 14:11:00,
2013-02-18 06:22:00,38.0,36.0,29.97,East,86,0.0,0.0,94,-99.99,,,-99.99,,2013-02-18 14:22:00,
2013-02-18 06:32:00,38.0,36.0,29.97,East,86,0.0,1.0,94,-99.99,,,-99.99,,2013-02-18 14:32:00,
2013-02-18 06:41:00,38.0,36.0,29.97,East,86,0.0,1.0,94,-99.99,,,-99.99,,2013-02-18 14:41:00,
2013-02-18 06:53:00,38.0,36.0,29.96,East,86,0.0,0.0,94,-99.99,,,-99.99,,2013-02-18 14:53:00,
2013-02-18 07:01:00,37.0,35.0,29.96,East,86,0.0,0.0,94,-99.99,,,-99.99,,2013-02-18 15:01:00,
2013-02-18 07:11:00,37.0,35.0,29.96,East,86,0.0,0.0,94,-99.99,,,-99.99,,2013-02-18 15:11:00,
2013-02-18 07:21:00,38.0,36.0,29.96,East,86,0.0,0.0,94,-99.99,,,-99.99,,2013-02-18 15:21:00,
2013-02-18 07:31:00,38.0,36.0,29.96,East,86,0.0,0.0,94,-99.99,,,-99.99,,2013-02-18 15:31:00,
2013-02-18 07:41:00,38.0,36.0,29.96,East,86,0.0,0.0,94,-99.99,,,-99.99,,2013-02-18 15:41:00,
2013-02-18 07:52:00,38.0,36.0,29.96,East,86,0.0,0.0,94,-99.99,,,-99.99,,2013-02-18 15:52:00,
2013-02-18 08:01:00,38.0,36.0,29.96,East,86,0.0,0.0,94,-99.99,,,-99.99,,2013-02-18 16:01:00,
2013-02-18 08:11:00,38.0,36.0,29.96,East,86,0.0,0.0,94,-99.99,,,-99.99,,2013-02-18 16:11:00,
2013-02-18 08:21:00,38.0,36.0,29.96,East,86,0.0,0.0,94,-99.99,,,-99.99,,2013-02-18 16:21:00,
2013-02-18 08:32:00,38.0,36.0,29.96,East,86,0.0,0.0,94,-99.99,,,-99.99,,2013-02-18 16:32:00,
2013-02-18 08:41:00,38.0,36.0,29.96,East,86,0.0,0.0,94,-99.99,,,-99.99,,2013-02-18 16:41:00,
2013-02-18 08:51:00,38.0,36.0,29.96,East,86,0.0,1.0,94,-99.99,,,-99.99,,2013-02-18 16:51:00,
2013-02-18 09:02:00,38.0,36.0,29.96,East,86,1.0,2.0,94,-99.99,,,-99.99,,2013-02-18 17:02:00,
2013-02-18 09:11:00,38.0,36.0,29.96,East,86,1.0,2.0,94,-99.99,,,-99.99,,2013-02-18 17:11:00,
2013-02-18 09:21:00,39.0,37.0,29.95,ESE,105,2.0,3.0,93,-99.99,,,-99.99,,2013-02-18 17:21:00,
2013-02-18 09:32:00,40.0,38.0,29.95,SE,126,3.0,5.0,91,-99.99,,,-99.99,,2013-02-18 17:32:00,
2013-02-18 09:43:00,40.0,38.0,29.95,SE,126,3.0,5.0,91,-99.99,,,-99.99,,2013-02-18 17:43:00,
2013-02-18 09:52:00,40.0,37.0,29.95,East,94,0.0,6.0,90,-99.99,,,-99.99,,2013-02-18 17:52:00,
2013-02-18 10:01:00,40.0,37.0,29.94,SSE,160,3.0,7.0,88,-99.99,,,-99.99,,2013-02-18 18:01:00,
2013-02-18 10:21:00,40.0,36.0,29.94,SE,146,2.0,5.0,87,-99.99,,,-99.99,,2013-02-18 18:21:00,
2013-02-18 10:32:00,41.0,37.0,29.94,South,179,2.0,5.0,84,-99.99,,,-99.99,,2013-02-18 18:32:00,
2013-02-18 10:41:00,41.0,37.0,29.94,South,179,2.0,5.0,84,-99.99,,,-99.99,,2013-02-18 18:41:00,
2013-02-18 10:52:00,42.0,37.0,29.94,SSE,150,3.0,7.0,83,-99.99,,,-99.99,,2013-02-18 18:52:00,
2013-02-18 11:02:00,42.0,37.0,29.94,SSE,147,4.0,7.0,82,-99.99,,,-99.99,,2013-02-18 19:02:00,
2013-02-18 11:11:00,42.0,37.0,29.94,SSE,147,4.0,7.0,82,-99.99,,,-99.99,,2013-02-18 19:11:00,
2013-02-18 11:21:00,42.0,36.0,29.94,SSE,163,2.0,9.0,79,-99.99,,,-99.99,,2013-02-18 19:21:00,
2013-02-18 11:32:00,42.0,36.0,29.94,SSE,151,3.0,11.0,80,-99.99,,,-99.99,,2013-02-18 19:32:00,
2013-02-18 11:42:00,42.0,36.0,29.94,SSE,151,3.0,11.0,80,-99.99,,,-99.99,,2013-02-18 19:42:00,
2013-02-18 11:52:00,43.0,37.0,29.93,SSE,161,2.0,7.0,79,-99.99,,,-99.99,,2013-02-18 19:52:00,
2013-02-18 12:01:00,43.0,37.0,29.93,SE,145,3.0,6.0,79,-99.99,,,-99.99,,2013-02-18 20:01:00,
2013-02-18 12:11:00,43.0,37.0,29.93,SE,145,3.0,6.0,79,-99.99,,,-99.99,,2013-02-18 20:11:00,
2013-02-18 12:21:00,43.0,36.0,29.91,SE,146,2.0,7.0,77,-99.99,,,-99.99,,2013-02-18 20:21:00,
2013-02-18 12:41:00,43.0,36.0,29.91,SE,142,1.0,6.0,76,-99.99,,,-99.99,,2013-02-18 20:41:00,
2013-02-18 12:52:00,43.0,36.0,29.91,SSE,157,4.0,6.0,76,-99.99,,,-99.99,,2013-02-18 20:52:00,
2013-02-18 13:01:00,43.0,36.0,29.90,SSE,163,4.0,6.0,76,-99.99,,,-99.99,,2013-02-18 21:01:00,
2013-02-18 13:11:00,43.0,36.0,29.90,SSE,163,4.0,6.0,76,-99.99,,,-99.99,,2013-02-18 21:11:00,
2013-02-18 13:21:00,43.0,36.0,29.90,SSE,163,4.0,6.0,76,-99.99,,,-99.99,,2013-02-18 21:21:00,
2013-02-18 13:31:00,44.0,36.0,29.89,SSE,153,1.0,7.0,74,-99.99,,,-99.99,,2013-02-18 21:31:00,
2013-02-18 13:41:00,44.0,36.0,29.89,SSE,153,1.0,7.0,74,-99.99,,,-99.99,,2013-02-18 21:41:00,
2013-02-18 13:52:00,44.0,36.0,29.89,South,172,1.0,9.0,73,-99.99,,,-99.99,,2013-02-18 21:52:00,
2013-02-18 14:01:00,44.0,35.0,29.88,SSE,158,4.0,9.0,70,-99.99,,,-99.99,,2013-02-18 22:01:00,
2013-02-18 14:11:00,44.0,35.0,29.88,SSE,158,4.0,9.0,70,-99.99,,,-99.99,,2013-02-18 22:11:00,
2013-02-18 14:21:00,44.0,35.0,29.88,SSE,158,4.0,9.0,70,-99.99,,,-99.99,,2013-02-18 22:21:00,
2013-02-18 14:32:00,44.0,33.0,29.87,SE,133,1.0,14.0,66,-99.99,,,-99.99,,2013-02-18 22:32:00,
2013-02-18 14:41:00,44.0,33.0,29.87,SE,133,1.0,14.0,66,-99.99,,,-99.99,,2013-02-18 22:41:00,
2013-02-18 14:53:00,44.0,33.0,29.87,South,186,3.0,15.0,66,-99.99,,,-99.99,,2013-02-18 22:53:00,
2013-02-18 15:01:00,44.0,34.0,29.87,SSE,161,4.0,11.0,68,-99.99,,,-99.99,,2013-02-18 23:01:00,
2013-02-18 15:11:00,44.0,34.0,29.87,SSE,161,4.0,11.0,68,-99.99,,,-99.99,,2013-02-18 23:11:00,
2013-02-18 15:21:00,45.0,35.0,29.86,SSE,161,5.0,9.0,67,-99.99,,,-99.99,,2013-02-18 23:21:00,
2013-02-18 15:31:00,45.0,35.0,29.85,SSE,151,7.0,13.0,69,-99.99,,,-99.99,,2013-02-18 23:31:00,
2013-02-18 15:41:00,45.0,35.0,29.85,SSE,151,7.0,13.0,69,-99.99,,,-99.99,,2013-02-18 23:41:00,
2013-02-18 15:52:00,44.0,35.0,29.85,South,186,4.0,10.0,71,-99.99,,,-99.99,,2013-02-18 23:52:00,
2013-02-18 16:02:00,44.0,36.0,29.85,SSE,161,4.0,11.0,72,-99.99,,,-99.99,,2013-02-19 00:02:00,
2013-02-18 16:11:00,44.0,36.0,29.85,SSE,161,4.0,11.0,72,-99.99,,,-99.99,,2013-02-19 00:11:00,
2013-02-18 16:21:00,44.0,36.0,29.84,SE,130,1.0,9.0,73,-99.99,,,-99.99,,2013-02-19 00:21:00,
2013-02-18 16:32:00,44.0,36.0,29.83,East,91,1.0,4.0,74,-99.99,,,-99.99,,2013-02-19 00:32:00,
2013-02-18 16:41:00,44.0,36.0,29.83,East,91,1.0,4.0,74,-99.99,,,-99.99,,2013-02-19 00:41:00,
2013-02-18 16:53:00,44.0,36.0,29.83,SE,132,3.0,6.0,74,-99.99,,,-99.99,,2013-02-19 00:53:00,
2013-02-18 17:02:00,44.0,36.0,29.82,ESE,115,1.0,9.0,74,-99.99,,,-99.99,,2013-02-19 01:02:00,
2013-02-18 17:11:00,44.0,36.0,29.82,ESE,115,1.0,9.0,74,-99.99,,,-99.99,,2013-02-19 01:11:00,
2013-02-18 17:22:00,44.0,37.0,29.82,South,175,1.0,4.0,75,-99.99,,,-99.99,,2013-02-19 01:22:00,
2013-02-18 17:32:00,43.0,36.0,29.81,ESE,121,1.0,4.0,75,-99.99,,,-99.99,,2013-02-19 01:32:00,
2013-02-18 17:42:00,43.0,36.0,29.81,ESE,121,1.0,4.0,75,-99.99,,,-99.99,,2013-02-19 01:42:00,
2013-02-18 17:54:00,43.0,36.0,29.81,East,96,0.0,4.0,76,-99.99,,,-99.99,,2013-02-19 01:54:00,
2013-02-18 18:01:00,43.0,36.0,29.80,SE,140,1.0,4.0,76,-99.99,,,-99.99,,2013-02-19 02:01:00,
2013-02-18 18:11:00,43.0,36.0,29.80,SE,140,1.0,4.0,76,-99.99,,,-99.99,,2013-02-19 02:11:00,
2013-02-18 18:21:00,43.0,36.0,29.80,ESE,117,1.0,3.0,76,-99.99,,,-99.99,,2013-02-19 02:21:00,
2013-02-18 18:32:00,43.0,36.0,29.80,ESE,123,0.0,3.0,76,-99.99,,,-99.99,,2013-02-19 02:32:00,
2013-02-18 18:42:00,43.0,36.0,29.80,ESE,123,0.0,3.0,76,-99.99,,,-99.99,,2013-02-19 02:42:00,
2013-02-18 18:52:00,43.0,36.0,29.79,ESE,123,0.0,2.0,77,-99.99,,,-99.99,,2013-02-19 02:52:00,
2013-02-18 19:03:00,43.0,36.0,29.79,ESE,118,2.0,4.0,77,-99.99,,,-99.99,,2013-02-19 03:03:00,
2013-02-18 19:11:00,43.0,36.0,29.79,ESE,118,2.0,4.0,77,-99.99,,,-99.99,,2013-02-19 03:11:00,
2013-02-18 19:21:00,43.0,36.0,29.79,ESE,120,0.0,3.0,75,-99.99,,,-99.99,,2013-02-19 03:21:00,
2013-02-18 19:45:00,42.0,35.0,29.78,East,86,1.0,4.0,75,-99.99,,,-99.99,,2013-02-19 03:45:00,
2013-02-18 19:53:00,42.0,35.0,29.78,SE,138,0.0,3.0,75,-99.99,,,-99.99,,2013-02-19 03:53:00,
2013-02-18 20:01:00,42.0,35.0,29.78,SE,138,0.0,1.0,76,-99.99,,,-99.99,,2013-02-19 04:01:00,
2013-02-18 20:21:00,42.0,35.0,29.78,SE,137,0.0,3.0,76,-99.99,,,-99.99,,2013-02-19 04:21:00,
2013-02-18 20:32:00,42.0,35.0,29.77,SE,134,0.0,2.0,75,-99.99,,,-99.99,,2013-02-19 04:32:00,
2013-02-18 20:42:00,42.0,35.0,29.77,SE,134,0.0,2.0,75,-99.99,,,-99.99,,2013-02-19 04:42:00,
2013-02-18 20:52:00,42.0,35.0,29.77,SE,134,0.0,1.0,77,-99.99,,,-99.99,,2013-02-19 04:52:00,
2013-02-18 21:01:00,42.0,35.0,29.77,SE,134,0.0,1.0,77,-99.99,,,-99.99,,2013-02-19 05:01:00,
2013-02-18 21:12:00,42.0,35.0,29.77,SE,134,0.0,1.0,77,-99.99,,,-99.99,,2013-02-19 05:12:00,
2013-02-18 21:22:00,42.0,36.0,29.76,NE,53,0.0,2.0,79,-99.99,,,-99.99,,2013-02-19 05:22:00,
2013-02-18 21:32:00,42.0,36.0,29.76,NE,53,0.0,2.0,79,-99.99,,,-99.99,,2013-02-19 05:32:00,
2013-02-18 21:42:00,42.0,36.0,29.76,NE,53,0.0,2.0,79,-99.99,,,-99.99,,2013-02-19 05:42:00,
2013-02-18 21:52:00,41.0,35.0,29.76,East,87,0.0,2.0,78,-99.99,,,-99.99,,2013-02-19 05:52:00,
2013-02-18 22:02:00,41.0,35.0,29.76,East,87,0.0,2.0,78,-99.99,,,-99.99,,2013-02-19 06:02:00,
2013-02-18 22:11:00,41.0,35.0,29.76,East,87,0.0,2.0,78,-99.99,,,-99.99,,2013-02-19 06:11:00,
2013-02-18 22:21:00,41.0,34.0,29.75,East,87,0.0,1.0,77,-99.99,,,-99.99,,2013-02-19 06:21:00,
2013-02-18 22:32:00,41.0,34.0,29.75,East,87,0.0,1.0,77,-99.99,,,-99.99,,2013-02-19 06:32:00,
2013-02-18 22:41:00,41.0,34.0,29.75,East,87,0.0,1.0,77,-99.99,,,-99.99,,2013-02-19 06:41:00,
2013-02-18 22:52:00,41.0,35.0,29.75,East,87,0.0,0.0,79,-99.99,,,-99.99,,2013-02-19 06:52:00,
2013-02-18 23:01:00,41.0,35.0,29.75,East,87,0.0,0.0,80,-99.99,,,-99.99,,2013-02-19 07:01:00,
2013-02-18 23:11:00,41.0,35.0,29.75,East,87,0.0,0.0,80,-99.99,,,-99.99,,2013-02-19 07:11:00,
2013-02-18 23:21:00,41.0,35.0,29.74,East,87,0.0,0.0,80,-99.99,,,-99.99,,2013-02-19 07:21:00,
2013-02-18 23:31:00,41.0,35.0,29.74,East,87,0.0,0.0,80,-99.99,,,-99.99,,2013-02-19 07:31:00,
2013-02-18 23:41:00,41.0,35.0,29.74,East,87,0.0,0.0,80,-99.99,,,-99.99,,2013-02-19 07:41:00,
2013-02-18 23:51:00,41.0,36.0,29.74,East,86,0.0,0.0,82,-99.99,,,-99.99,,2013-02-19 07:51:00,